User: anonymous   Login
Location: Düngen
(52.0952°N, 10.0219°E)
Time: 08:33:32
(UTC+00:00)
Language:

CSL-04 Rocket - Orbit

View from above orbital plane
View from above orbital plane
View from above satellite
View from above satellite

Ground track
Ground track

The orbit is defined by the following mean orbital elements,

1 25732U          26128.13832095 +.00000000 +00000-0 +33371-4 0 00003
2 25732  98.6517 170.9782 0037313 172.1570 253.0634 14.18276471    05
Epoch (UTC): 08 May 2026 03:19:10
Eccentricity: 0.0037313
inclination: 98.6517°
perigee height: 804 km
apogee height: 858 km
right ascension of ascending node: 170.9782°
argument of perigee: 172.1570°
revolutions per day: 14.18276471
mean anomaly at epoch: 253.0634°

The dashed part of the orbit path shows where the satellite is in the earth's shadow,  

DLR